Wind_Speed
30 31 31 31 31 31 31 31 30 29 27 24 23 21 20 18 17 17 17 16 15 15 15 16 16 17 16 16 16 15 15 15 15 15 14 14 14 15 16 16 16 16 16 16
29 30 31 31 31 31 30 30 29 28 27 24 23 21 19 19 17 15 15 15 15 15 16 15 15 16 16 16 16 15 14 14 15 15 14 14 15 15 16 16 16 16 17 17
29 29 30 31 31 31 30 29 28 27 25 24 23 21 20 19 18 17 15 14 14 15 16 15 15 16 16 16 16 15 15 14 14 15 15 14 15 15 15 15 16 16 17 17
29 29 31 30 29 30 29 28 27 26 24 24 24 22 21 20 19 19 17 16 16 16 15 15 15 15 16 15 15 14 14 14 15 16 16 15 16 16 16 16 17 17 18 18
30 30 30 30 29 28 27 26 26 25 24 24 23 23 22 21 20 20 19 18 17 17 16 16 15 16 15 15 15 15 15 15 15 16 16 16 16 16 17 18 18 19 19 19
30 31 31 28 28 28 27 27 25 25 24 23 23 23 22 21 21 20 20 18 17 17 16 16 16 15 15 14 15 16 16 16 16 17 17 17 17 17 18 19 20 20 20 20
31 30 30 28 28 28 28 26 25 25 24 23 23 23 23 23 22 21 21 19 18 17 17 17 16 15 15 15 15 16 16 17 17 16 17 17 18 19 20 20 21 21 21 22
30 31 30 28 27 27 27 26 25 24 24 24 24 24 24 23 22 22 21 20 19 19 18 18 17 16 15 14 14 15 15 16 16 16 17 18 20 21 21 22 23 23 23 24
31 30 28 27 27 27 27 26 25 25 24 24 24 23 23 23 21 20 20 19 19 19 18 18 17 15 15 14 14 15 15 15 16 16 18 19 20 20 21 22 22 22 23 24
30 29 28 27 27 27 27 27 26 26 25 25 25 24 23 22 22 22 21 20 19 19 18 18 17 16 16 15 16 16 16 16 17 17 18 19 19 19 19 20 20 21 23 23
29 28 27 26 27 28 28 28 27 27 26 26 26 25 25 24 23 22 21 20 20 19 18 17 17 16 16 16 17 17 17 17 18 18 18 18 18 18 18 19 20 21 23 23
28 27 26 25 25 26 27 27 27 27 26 26 26 26 24 24 23 21 20 19 18 18 18 17 16 16 16 16 17 17 18 18 18 18 18 18 19 19 20 20 21 21 22 23
27 26 26 25 25 25 25 26 26 26 25 24 24 24 24 23 21 20 19 18 17 18 17 16 16 16 16 16 17 18 18 18 18 18 19 19 20 20 20 21 22 22 23 23
27 26 26 25 24 24 23 23 24 24 23 23 22 22 22 21 20 20 19 18 18 17 17 16 16 16 16 17 17 17 18 19 19 19 20 20 20 21 22 22 23 23 24 24
26 25 24 24 24 23 23 23 24 23 22 22 22 21 21 21 20 20 19 19 18 18 17 17 17 17 17 17 18 18 19 19 19 20 20 21 21 22 23 23 24 25 25 26
25 25 24 23 23 23 23 22 22 21 21 22 22 22 21 20 19 19 18 18 18 18 18 17 17 17 17 17 17 17 18 19 19 20 20 21 22 23 24 25 25 26 26 27
24 23 22 22 22 23 23 22 22 21 21 21 21 21 21 20 19 18 18 18 18 17 16 16 16 17 17 17 17 17 18 18 19 20 21 21 22 24 24 25 26 26 27 28
23 22 22 21 22 23 23 21 21 21 20 19 19 19 19 18 17 17 17 17 17 16 16 15 15 16 16 17 17 17 18 19 20 21 21 22 23 24 25 26 27 27 27 28
23 22 21 21 21 22 22 21 20 20 20 19 17 17 18 17 17 17 17 17 17 16 15 15 16 16 17 17 18 19 20 20 21 21 22 23 24 25 25 26 27 27 27 28
21 21 20 19 20 21 21 20 20 20 19 18 18 17 16 16 16 16 16 16 16 16 16 16 16 17 17 18 19 20 20 21 22 23 23 24 24 25 26 26 27 28 28 29
20 19 19 20 20 20 20 19 19 19 18 17 17 17 16 16 16 16 15 15 16 16 16 17 17 17 18 19 19 20 21 21 22 23 23 24 25 26 27 28 29 29 30 31
20 19 19 20 21 20 20 20 20 19 19 18 17 16 15 15 15 16 16 16 16 16 16 17 17 18 19 20 21 21 22 22 23 24 25 26 26 27 27 28 29 30 30 31
19 20 19 20 20 20 19 18 18 17 18 18 18 17 17 16 16 16 17 17 16 16 17 17 18 19 20 21 21 21 22 22 23 24 25 26 26 27 28 28 29 29 30 30
19 19 18 18 18 18 18 18 17 17 17 18 18 18 17 17 16 16 16 16 17 18 18 18 19 20 20 20 20 21 21 22 23 24 25 25 26 27 27 28 29 29 30 30
19 18 18 18 18 18 18 18 17 16 16 15 15 16 16 16 16 16 16 17 17 17 18 18 19 19 20 20 20 21 22 23 24 24 25 25 26 27 27 28 28 29 30 30
18 18 18 18 17 17 17 16 16 16 15 15 15 15 15 15 16 16 16 16 16 16 17 17 18 18 18 19 21 22 23 25 25 25 25 26 26 27 27 28 28 29 29 29
18 17 16 16 16 16 15 15 15 15 15 15 14 14 14 13 14 14 14 14 15 15 15 16 17 18 19 21 22 23 23 24 25 25 25 26 26 27 27 28 28 28 28 28
Wind_Direction
216 218 222 225 228 231 234 237 240 242 244 243 241 242 246 247 249 254 256 258 258 258 260 261 261 261 262 267 267 271 273 271 265 263 264 267 268 268 270 270 272 274 277 278
217 219 221 224 227 230 234 237 239 240 241 240 239 242 242 243 245 247 249 254 259 259 257 257 260 258 262 262 262 267 272 272 264 263 268 271 270 272 273 274 274 276 277 278
220 221 222 224 226 230 234 237 238 239 239 238 239 239 238 239 242 245 250 257 262 264 258 257 261 262 263 260 260 264 269 270 266 269 272 271 275 275 275 276 277 277 278 280
222 222 225 226 228 232 236 237 237 238 237 237 238 238 236 238 240 246 253 258 261 262 260 260 263 265 265 262 260 264 270 273 271 272 273 275 276 273 275 276 277 277 278 280
224 225 228 228 229 232 235 237 237 236 236 236 235 236 237 239 241 245 253 259 261 261 264 267 268 265 264 263 264 266 269 272 272 274 274 275 276 272 273 276 277 277 278 280
227 228 229 229 231 232 234 236 236 236 236 236 234 234 237 240 242 246 252 258 261 265 268 268 270 265 259 261 265 267 269 272 272 274 274 276 278 278 277 278 279 279 280 281
229 231 233 231 232 233 235 235 235 236 237 236 234 234 236 239 243 247 253 258 263 266 268 268 270 265 260 260 264 268 270 274 275 275 274 277 279 280 280 279 280 280 281 282
232 234 234 233 234 235 235 233 233 235 237 236 235 237 238 241 245 248 252 257 261 266 267 267 266 265 262 262 264 268 270 274 276 278 278 279 281 281 279 280 279 279 279 279
234 236 236 236 236 234 233 233 232 233 233 235 236 237 239 242 244 245 251 256 261 263 265 264 264 265 264 262 265 270 274 278 279 281 282 281 283 282 280 280 280 280 280 280
235 237 237 236 234 235 234 233 232 234 234 234 234 235 240 242 244 246 250 256 258 258 260 260 262 264 264 264 266 269 274 277 279 283 285 285 284 284 283 284 283 283 284 286
234 235 236 235 235 235 234 233 233 233 233 234 234 237 238 241 245 244 248 252 254 256 257 259 260 262 263 263 267 270 273 276 279 282 284 287 286 284 283 286 288 288 288 287
230 231 232 233 234 234 234 231 232 232 232 234 235 236 237 240 242 243 245 251 251 252 256 257 256 257 260 265 270 271 272 274 278 281 283 284 284 285 286 288 289 288 287 289
228 230 229 230 233 234 232 229 229 230 230 230 233 233 235 236 235 236 243 246 247 250 254 255 256 259 263 268 270 270 271 274 277 280 282 284 283 284 286 288 289 288 288 289
227 228 226 228 230 230 228 225 225 225 226 229 232 231 230 233 235 237 238 239 243 248 252 256 259 261 264 268 271 273 275 277 277 279 282 283 283 285 288 290 289 289 290 291
225 224 223 225 226 226 223 222 224 226 229 231 232 230 231 233 234 233 233 236 240 247 252 256 258 261 265 268 272 276 279 278 278 279 280 281 284 288 290 292 292 292 292 292
222 222 222 222 222 222 222 220 222 225 229 231 233 231 230 230 228 228 232 236 241 247 252 255 259 263 267 270 273 277 280 281 282 282 284 285 288 290 292 292 292 292 292 292
221 220 219 217 218 220 222 220 220 221 224 227 228 227 226 225 227 233 237 238 242 246 251 255 259 263 266 270 274 278 282 285 286 287 288 290 292 293 294 295 295 295 295 295
216 217 216 217 217 217 219 218 217 219 218 218 221 223 223 224 229 233 236 239 243 248 253 256 260 264 268 271 274 277 282 287 288 289 290 292 294 295 295 295 295 296 297 297
213 213 213 213 211 212 214 214 212 211 211 212 213 219 222 227 232 236 237 240 245 249 252 258 261 265 268 272 276 279 282 287 289 290 291 293 294 296 297 297 296 297 298 298
204 205 204 202 203 202 202 203 204 205 208 213 216 219 224 230 234 237 238 240 243 249 257 261 264 267 271 275 280 281 284 287 289 290 292 294 295 297 297 298 298 298 299 300
196 197 198 197 197 197 199 202 204 207 211 215 218 220 225 230 233 236 239 243 248 253 259 264 267 271 275 279 283 285 287 289 290 292 294 296 296 297 298 299 300 301 301 302
196 197 198 198 198 199 202 204 206 209 212 215 217 219 223 227 231 236 239 244 249 256 262 266 270 274 279 283 285 287 289 290 292 294 296 296 297 298 299 300 301 302 302 302
194 195 197 198 199 200 202 203 206 210 213 216 219 221 225 228 233 238 243 248 254 261 265 269 273 277 282 284 286 288 290 292 295 296 297 299 300 301 301 302 303 304 304 304
190 193 195 197 198 199 200 202 207 212 215 217 219 223 226 230 235 239 245 252 259 264 268 273 277 280 283 285 288 291 293 295 297 298 299 300 301 302 303 305 307 308 308 308
188 189 191 194 198 202 205 209 212 212 214 216 220 224 229 233 239 245 251 257 262 266 270 274 279 281 284 288 291 293 294 296 298 299 300 302 303 305 306 308 309 310 310 310
186 186 190 193 196 200 203 207 209 212 214 218 222 225 231 239 246 251 255 259 264 270 275 278 282 286 290 293 295 295 296 297 298 299 301 302 304 305 306 307 309 310 311 312
183 185 188 189 191 193 197 203 208 211 215 219 222 227 235 244 251 254 258 264 271 275 278 282 287 291 294 295 297 298 299 300 300 301 302 304 305 306 306 308 310 311 312 313
Height
5794 5799 5803 5808 5812 5815 5819 5823 5827 5831 5834 5839 5842 5845 5847 5848 5850 5852 5853 5854 5855 5856 5857 5857 5857 5857 5857 5857 5857 5857 5857 5856 5857 5858 5858 5858 5858 5859 5859 5858 5858 5858 5858 5858
5789 5794 5798 5802 5806 5810 5814 5818 5821 5825 5830 5834 5837 5840 5842 5844 5846 5848 5849 5850 5851 5852 5852 5853 5853 5853 5854 5854 5854 5854 5854 5854 5854 5854 5854 5854 5854 5854 5854 5854 5854 5854 5854 5853
5785 5789 5793 5797 5802 5805 5809 5813 5817 5821 5826 5829 5832 5835 5838 5840 5842 5844 5845 5847 5848 5848 5848 5848 5849 5849 5850 5850 5850 5850 5850 5850 5851 5851 5851 5851 5850 5850 5850 5850 5850 5850 5849 5849
5780 5785 5788 5795 5797 5800 5804 5808 5812 5816 5820 5824 5827 5830 5833 5836 5838 5840 5841 5843 5843 5844 5844 5844 5845 5845 5846 5846 5846 5846 5847 5847 5847 5847 5847 5846 5846 5846 5846 5846 5846 5845 5845 5844
5775 5779 5783 5788 5792 5795 5799 5803 5807 5811 5815 5818 5822 5825 5828 5831 5833 5835 5837 5838 5839 5839 5840 5840 5840 5840 5840 5841 5841 5842 5843 5843 5843 5843 5843 5842 5842 5842 5842 5841 5841 5840 5839 5839
5769 5773 5777 5784 5787 5790 5795 5798 5803 5806 5810 5813 5817 5821 5824 5826 5828 5830 5832 5833 5834 5835 5835 5836 5836 5836 5836 5837 5837 5838 5838 5839 5839 5839 5838 5838 5838 5837 5837 5836 5835 5835 5834 5833
5764 5767 5772 5778 5781 5786 5791 5795 5798 5801 5804 5808 5812 5816 5819 5821 5823 5825 5826 5828 5829 5830 5830 5831 5831 5831 5831 5832 5832 5833 5833 5834 5834 5834 5833 5833 5832 5832 5831 5831 5830 5829 5829 5828
5758 5762 5769 5772 5776 5780 5784 5789 5792 5796 5799 5803 5806 5810 5812 5815 5817 5819 5821 5823 5824 5825 5825 5826 5826 5826 5826 5827 5828 5828 5829 5829 5829 5829 5828 5828 5827 5826 5825 5825 5824 5823 5823 5822
5754 5759 5763 5766 5770 5774 5778 5782 5786 5790 5794 5797 5800 5803 5806 5809 5812 5814 5815 5817 5818 5819 5820 5820 5821 5821 5822 5823 5824 5824 5824 5824 5824 5824 5823 5822 5822 5821 5820 5819 5818 5817 5816 5815
5748 5752 5757 5761 5764 5768 5772 5776 5780 5784 5788 5791 5795 5798 5801 5804 5806 5808 5810 5812 5813 5814 5815 5815 5816 5817 5817 5818 5819 5819 5820 5820 5820 5819 5818 5817 5816 5815 5814 5813 5812 5811 5810 5809
5742 5747 5751 5755 5758 5762 5766 5771 5775 5778 5782 5785 5789 5792 5795 5798 5800 5802 5804 5806 5807 5809 5809 5810 5811 5812 5813 5814 5815 5815 5815 5815 5815 5814 5813 5812 5811 5810 5809 5808 5807 5806 5804 5803
5737 5742 5746 5750 5753 5757 5760 5764 5768 5772 5776 5779 5783 5786 5789 5792 5794 5797 5799 5800 5802 5803 5805 5805 5806 5807 5808 5809 5810 5810 5810 5810 5809 5809 5808 5807 5806 5805 5803 5803 5801 5800 5798 5797
5731 5735 5740 5744 5747 5751 5754 5758 5762 5766 5771 5774 5777 5780 5783 5786 5789 5792 5794 5796 5798 5799 5800 5801 5802 5803 5803 5804 5805 5805 5804 5804 5804 5803 5802 5801 5801 5800 5798 5797 5795 5794 5792 5790
5725 5730 5734 5738 5742 5746 5749 5753 5757 5760 5765 5768 5771 5775 5778 5781 5784 5787 5789 5791 5793 5795 5796 5797 5797 5798 5799 5799 5799 5799 5799 5798 5798 5797 5797 5796 5795 5794 5792 5791 5789 5787 5786 5784
5720 5725 5729 5733 5737 5741 5744 5748 5752 5756 5760 5763 5767 5770 5774 5777 5779 5781 5784 5786 5788 5790 5791 5792 5792 5793 5794 5794 5794 5794 5793 5793 5792 5791 5790 5790 5788 5787 5786 5784 5782 5780 5778 5777
5716 5720 5724 5728 5732 5736 5740 5744 5748 5752 5756 5759 5763 5766 5769 5772 5774 5777 5779 5781 5783 5785 5786 5786 5787 5788 5788 5788 5788 5788 5788 5787 5786 5785 5784 5783 5782 5781 5779 5777 5775 5773 5771 5769
5711 5716 5720 5724 5728 5732 5736 5740 5744 5747 5751 5754 5758 5761 5764 5767 5770 5772 5774 5776 5778 5780 5780 5781 5782 5783 5783 5783 5783 5783 5783 5782 5781 5780 5778 5777 5775 5774 5772 5770 5768 5766 5764 5761
5707 5711 5716 5720 5723 5728 5732 5736 5740 5743 5747 5751 5754 5757 5760 5763 5765 5768 5770 5772 5774 5775 5776 5777 5777 5778 5778 5778 5778 5778 5777 5776 5775 5774 5772 5771 5769 5767 5765 5763 5761 5758 5756 5754
5703 5707 5711 5715 5719 5724 5728 5732 5736 5740 5744 5747 5750 5753 5756 5759 5761 5764 5766 5768 5769 5771 5772 5772 5773 5773 5773 5773 5773 5772 5771 5770 5769 5768 5766 5765 5763 5761 5759 5756 5754 5751 5748 5746
5699 5704 5708 5712 5716 5720 5725 5729 5733 5737 5740 5744 5747 5750 5753 5755 5757 5759 5761 5763 5765 5766 5767 5768 5768 5768 5768 5767 5767 5766 5765 5764 5763 5762 5760 5758 5756 5754 5751 5749 5746 5744 5741 5738
5697 5701 5705 5710 5714 5718 5722 5726 5730 5734 5737 5740 5743 5746 5749 5751 5753 5755 5757 5759 5760 5761 5762 5763 5763 5763 5763 5762 5761 5760 5759 5758 5757 5755 5753 5751 5749 5747 5744 5742 5739 5736 5733 5730
5695 5700 5704 5708 5712 5716 5719 5723 5727 5731 5734 5737 5740 5743 5745 5748 5750 5752 5753 5755 5756 5757 5758 5758 5758 5758 5757 5756 5755 5754 5753 5752 5750 5748 5746 5744 5742 5739 5737 5734 5731 5728 5725 5721
5694 5698 5702 5706 5710 5714 5717 5721 5724 5728 5731 5734 5737 5740 5742 5744 5746 5748 5749 5751 5751 5752 5753 5753 5753 5752 5752 5751 5749 5748 5747 5745 5743 5741 5739 5737 5734 5732 5729 5726 5723 5720 5716 5713
5693 5697 5701 5705 5708 5712 5716 5719 5722 5726 5728 5731 5734 5736 5739 5741 5742 5744 5745 5746 5747 5747 5747 5747 5747 5746 5746 5744 5743 5742 5740 5738 5736 5734 5732 5730 5727 5724 5721 5718 5715 5712 5708 5705
5692 5696 5699 5703 5707 5711 5714 5717 5720 5723 5726 5728 5730 5733 5735 5737 5738 5739 5740 5741 5741 5742 5742 5741 5741 5740 5739 5738 5736 5735 5733 5732 5729 5727 5725 5722 5720 5717 5714 5711 5707 5704 5701 5697
5692 5696 5699 5702 5706 5709 5712 5715 5718 5720 5723 5725 5727 5730 5732 5733 5735 5735 5736 5736 5736 5737 5736 5736 5735 5734 5733 5732 5730 5729 5727 5725 5723 5720 5718 5715 5713 5710 5707 5704 5700 5697 5693 5690
5692 5695 5698 5702 5705 5708 5711 5713 5715 5718 5720 5722 5725 5727 5728 5730 5731 5731 5732 5732 5732 5732 5731 5731 5730 5729 5727 5726 5724 5722 5720 5718 5715 5713 5711 5708 5705 5703 5699 5696 5693 5690 5686 5683